Regional Weather Roundup
Issued by NWS Cleveland, OH

Home | Current Version | Previous Version | Graphics & Text | Print | Product List | Glossary On
Versions: 1 2 3 4 5 6 7 8 9 10 11 12 13 14 15 16 17 18 19 20 21 22 23 24 25 26 27 28 29 30 31 32 33 34 35 36 37 38 39 40 41 42 43 44 45 46 47 48 49 50
000
ASUS41 KCLE 190702
RWRCLE
OHIO REGIONAL WEATHER ROUNDUP
NATIONAL WEATHER SERVICE CLEVELAND, OH
300 AM EDT FRI SEP 19 2014

NOTE: "FAIR" INDICATES FEW OR NO CLOUDS BELOW 12,000 FEET WITH NO
SIGNIFICANT WEATHER AND/OR OBSTRUCTIONS TO VISIBILITY.

OHZ001>008-015>018-024>027-034-035-043-044-190800-
   NORTHWEST OHIO

CITY           SKY/WX    TMP DP  RH WIND       PRES   REMARKS
DEFIANCE       CLEAR     51  49  92 NE3       30.22R FOG
FINDLAY        CLEAR     54  51  90 NE7       30.20S FOG
TOLEDO EXPRESS PTCLDY    51  48  89 NE6       30.23R
TOLEDO EXEC    PTCLDY    54  48  80 NE3       30.24R
LIMA           CLEAR     52  49  89 E7        30.20R
$$

OHZ009>014-019>023-028>033-038-089-190800-
   NORTHEAST OHIO

CITY           SKY/WX    TMP DP  RH WIND       PRES   REMARKS
CLE-HOPKINS    PTCLDY    53  48  83 N3        30.24R
CLE-LAKEFRONT  PTCLDY    57  49  74 CALM      30.21R
CUY CO. ARPT   NOT AVBL
LORAIN-ELYRIA  CLEAR     53  48  83 E3        30.22S
ASHTABULA      CLEAR     47  44  90 E3        30.23R FOG
AKRON-CANTON   CLEAR     48  45  89 N7        30.21R FOG
WOOSTER        CLEAR     46  43  89 NE5       30.22S FOG
MANSFIELD      CLEAR     51  49  92 NE3       30.21S
YOUNGSTOWN     PTCLDY    45  44  97 NE3       30.22R
$$

OHZ042-051>053-060>062-070>072-077>081-190800-
  SOUTHWEST OHIO

CITY           SKY/WX    TMP DP  RH WIND       PRES   REMARKS
CINC-COVINGTON CLEAR     57  46  66 E9        30.15S
CINC-LUNKEN    CLEAR     50  48  93 CALM      30.17R
HAMILTON       CLEAR     48  47  96 CALM      30.18R
DAYTON         CLEAR     53  49  86 E7        30.19S
WRIGHT-PAT AFB CLEAR     54  50  87 CALM      30.18R FOG
DAYTON GENERAL CLEAR     51  48  89 NE7       30.17R
WILMINGTON     CLEAR     51  47  86 NE6       30.17R
$$

OHZ036-037-039>041-045>050-054>059-063>069-073>076-082>088-190800-
  CENTRAL AND SOUTHEAST OHIO

CITY           SKY/WX    TMP DP  RH WIND       PRES   REMARKS
COLUMBUS       CLEAR     56  48  74 E8        30.18R
OSU AIRPORT    CLEAR     52  49  89 NE6       30.18S
BOLTON FIELD   NOT AVBL
RICKENBACK AFB CLEAR     49  47  91 NE5       30.17S
NEWARK         CLEAR     51  48  89 N3        30.19R
MARION         CLEAR     48  45  89 N5        30.20S FOG
LANCASTER      CLEAR     47  45  93 CALM      30.18S
ZANESVILLE     CLEAR     50  47  89 CALM      30.18S
NEW PHILLY     CLEAR     47  46  97 CALM      30.21S
$$


USA.gov is the U.S. government's official web portal to all federal, state and local government web resources and services.